{"data":{"norad_id":65532,"epoch":"2026-05-25T04:17:31.919424Z","epoch_age_seconds":53377,"freshness":"FRESH","line1":"1 65532U 25200N   26145.17884166  .00005375  00000+0  37620-3 0  9999","line2":"2 65532  97.4465 214.8776 0002590 131.2295 228.9155 15.05660954 40649","mean_motion":15.05660954,"eccentricity":0.000259,"inclination_deg":97.4465,"raan_deg":214.8776,"arg_perigee_deg":131.2295,"mean_anomaly_deg":228.9155,"bstar":0.0003762,"rev_number":4064,"period_min":95.639061116278,"perigee_km":547.68330176435,"apogee_km":551.27180610328,"semimajor_km":6927.6145539338,"source":"CELESTRAK","updated_at":"2026-05-25T13:38:20.848722Z"}}